This is the latest recevied weather packets stored in our database for station/object OK2PAT-12. If no packets are shown the sender has not sent any weather packets the latest 10 day(s).
| Time | Temp. | Humidity | Pressure | Rain* | Wind** | Luminosity | Snow |
|---|---|---|---|---|---|---|---|
| 1777466700 | 12.22° C | 32% | 1027.7 hPa | - | - | - | - |
| 1777466100 | 9.44° C | 33% | 1027.8 hPa | - | - | - | - |
| 1777465500 | 9.44° C | 34% | 1027.8 hPa | - | - | - | - |
| 1777464900 | 9.44° C | 35% | 1027.7 hPa | - | - | - | - |
| 1777464300 | 9.44° C | 37% | 1027.7 hPa | - | - | - | - |
| 1777463700 | 9.44° C | 37% | 1027.7 hPa | - | - | - | - |
| 1777463100 | 9.44° C | 38% | 1027.7 hPa | - | - | - | - |
| 1777462500 | 8.89° C | 40% | 1027.7 hPa | - | - | - | - |
| 1777461900 | 8.89° C | 40% | 1027.8 hPa | - | - | - | - |
| 1777461300 | 8.89° C | 40% | 1027.9 hPa | - | - | - | - |
| 1777460700 | 8.89° C | 41% | 1027.9 hPa | - | - | - | - |
| 1777460100 | 9.44° C | 41% | 1028 hPa | - | - | - | - |
| 1777459500 | 9.44° C | 42% | 1027.9 hPa | - | - | - | - |
| 1777458900 | 9.44° C | 42% | 1028 hPa | - | - | - | - |
| 1777458300 | 8.89° C | 44% | 1027.8 hPa | - | - | - | - |
| 1777457700 | 8.89° C | 44% | 1027.8 hPa | - | - | - | - |
| 1777457100 | 8.89° C | 44% | 1027.9 hPa | - | - | - | - |
| 1777456500 | 8.89° C | 45% | 1027.8 hPa | - | - | - | - |
| 1777455900 | 8.33° C | 47% | 1027.7 hPa | - | - | - | - |
| 1777455300 | 8.33° C | 48% | 1027.7 hPa | - | - | - | - |
| 1777454700 | 7.78° C | 49% | 1027.7 hPa | - | - | - | - |
| 1777454100 | 7.78° C | 50% | 1027.8 hPa | - | - | - | - |
| 1777453500 | 7.78° C | 52% | 1027.8 hPa | - | - | - | - |
| 1777452900 | 7.22° C | 53% | 1027.8 hPa | - | - | - | - |
| 1777452300 | 7.22° C | 53% | 1027.8 hPa | - | - | - | - |
* Rain since midnight (hover to see other rain measurements)
** Current wind speed in m/s (hover to see current wind gust speed)